This is the latest recevied weather packets stored in our database for station/object BG5HLN-13. If no packets are shown the sender has not sent any weather packets the latest 10 day(s).
| Time | Temp. | Humidity | Pressure | Rain* | Wind** | Luminosity | Snow |
|---|---|---|---|---|---|---|---|
| 1787981783 | 36.11° C | 77% | 1002.5 hPa | 4.57 mm | - | - | - |
| 1787981182 | 35.56° C | 78% | 1002.5 hPa | 4.57 mm | - | - | - |
| 1787980582 | 36.11° C | 77% | 1002.6 hPa | 4.57 mm | - | - | - |
| 1787979982 | 36.11° C | 76% | 1002.7 hPa | 4.57 mm | - | - | - |
| 1787979382 | 36.11° C | 77% | 1002.9 hPa | 2.54 mm | - | - | - |
| 1787978781 | 36.11° C | 76% | 1002.9 hPa | 0.51 mm | - | - | - |
| 1787978182 | 35.56° C | 77% | 1003 hPa | 0 mm | - | - | - |
| 1787977582 | 35.56° C | 77% | 1003.1 hPa | 0 mm | - | - | - |
| 1787976982 | 35.56° C | 76% | 1003.2 hPa | 0 mm | - | - | - |
| 1787976381 | 36.11° C | 77% | 1003.2 hPa | 0 mm | - | - | - |
| 1787975782 | 36.11° C | 78% | 1003.3 hPa | 0 mm | - | - | - |
| 1787975182 | 35.56° C | 78% | 1003.3 hPa | 0 mm | - | - | - |
| 1787974582 | 35.56° C | 80% | 1003.4 hPa | 0 mm | - | - | - |
| 1787973982 | 35° C | 80% | 1003.5 hPa | 0 mm | - | - | - |
| 1787973382 | 35° C | 81% | 1003.7 hPa | 0.76 mm | - | - | - |
| 1787972781 | 34.44° C | 81% | 1003.6 hPa | 0.76 mm | - | - | - |
| 1787972181 | 33.89° C | 83% | 1003.6 hPa | 1.52 mm | - | - | - |
| 1787971581 | 33.33° C | 82% | 1003.8 hPa | 1.52 mm | - | - | - |
| 1787970982 | 33.33° C | 84% | 1003.8 hPa | 1.52 mm | - | - | - |
| 1787970381 | 33.33° C | 84% | 1003.7 hPa | 1.78 mm | - | - | - |
| 1787969782 | 32.78° C | 85% | 1003.9 hPa | 0.76 mm | - | - | - |
| 1787969182 | 32.78° C | 85% | 1003.8 hPa | 0.76 mm | - | - | - |
| 1787968581 | 32.78° C | 86% | 1003.9 hPa | 0.25 mm | - | - | - |
| 1787967381 | 32.78° C | 85% | 1003.7 hPa | 0.25 mm | - | - | - |
| 1787966781 | 32.78° C | 86% | 1003.8 hPa | 0 mm | - | - | - |
* Rain latest hour (hover to see other rain measurements)
** Current wind speed in m/s (hover to see current wind gust speed)